Retour au catalogue

ONEWEB-0678

ActifCommunicationsPO
NORAD 56714·PAYLOAD·🇬🇧 United Kingdom

Lancé May 20, 2023 depuis Vandenberg Space Force Base

Loading…

Prochains Passages (prochaines 24 heures)

TLE

FraisSource: CelesTrak SupGP

Époque: Sep 14, 2026, 21:54 UTC

1 56714C 23068E   26257.91266620  .00000639  00000+0  16983-2 0  2579
2 56714  87.8987 241.3081 0002179  80.0931 303.8817 13.15546870    12

Suivez ONEWEB-0678 en temps réel avec AllMySat

Download on the App Store